Weather History for Wink, TX

Change the Weather History Date:

Tuesday, December 4, 2012

  Actual Average Record
Temperature  
Mean Temperature 54 °F -  
Max Temperature 66 °F 63 °F 86 °F (1954)
Min Temperature 39 °F 30 °F 14 °F (1990)
Degree Days  
Heating Degree Days 12    
Growing Degree Days 4 (Base 50)    
Moisture  
Dew Point 31 °F    
Average Humidity 46    
Maximum Humidity 63    
Minimum Humidity 29    
Precipitation  
Precipitation 0.00 in - - ()
Sea Level Pressure  
Sea Level Pressure 30.21 in    
Wind  
Wind Speed 6 mph (North)    
Max Wind Speed 12 mph    
Max Gust Speed -    
Visibility 10 miles    
Events      
Averages and records for this station are not official NWS values.
T = Trace of Precipitation, MM = Missing Value Source: NWS Daily Summary

Daily Weather History Graph

Daily Weather History Graph

Search for Another Location

Airport:

Trip Planner

Search our weather history database for the weather conditions in past years. The results will help you decide how hot, cold, wet, or windy it might be!

Date:

Astronomy

Dec. 04, 2012 Rise Set
Actual Time 7:37 AM CST 5:48 PM CST
Civil Twilight 7:11 AM CST 6:15 PM CST
Nautical Twilight 6:40 AM CST 6:45 PM CST
Astronomical Twilight 6:11 AM CST 7:15 PM CST
Moon 11:24 PM CST (12/4) 11:45 AM CST (12/4)
Length of Visible Light 11h 04m
Length of Day
10h 10m
Waning Gibbous, 69% of the Moon is Illuminated
Dec 4
Waning Gibbous
Dec 6
Last Quarter
Dec 13
New
Dec 19
First Quarter
Dec 28
Full

Hourly Weather History & Observations

Time (CST) Temp. Windchill Dew Point Humidity Pressure Visibility Wind Dir Wind Speed Gust Speed Precip Events Conditions
12:53 AM 46.0 °F - 21.9 °F 39% 30.01 in - Calm Calm - N/A   Clear
1:53 AM 41.0 °F 37.1 °F 21.9 °F 47% 30.04 in - North 5.8 mph - N/A   Clear
2:53 AM 41.0 °F 35.8 °F 23.0 °F 49% 30.05 in - NNW 8.1 mph - N/A   Clear
3:53 AM 41.0 °F 35.8 °F 25.0 °F 53% 30.06 in - North 8.1 mph - N/A   Clear
4:53 AM 43.0 °F 38.8 °F 28.0 °F 56% 30.09 in - NNW 6.9 mph - N/A   Clear
5:53 AM 44.1 °F 39.0 °F 28.9 °F 55% 30.13 in - North 9.2 mph - N/A   Clear
6:53 AM 42.1 °F 36.6 °F 30.0 °F 62% 30.18 in - North 9.2 mph - N/A   Clear
7:53 AM 43.0 °F 37.2 °F 30.9 °F 62% 30.23 in - North 10.4 mph - N/A   Clear
8:53 AM 48.0 °F - 32.0 °F 54% 30.27 in 10.0 mi North 10.4 mph - N/A   Clear
9:53 AM 53.1 °F - 34.0 °F 48% 30.29 in 10.0 mi NNE 11.5 mph - N/A   Clear
10:53 AM 57.9 °F - 35.1 °F 42% 30.31 in 10.0 mi NNE 6.9 mph - N/A   Clear
11:53 AM 62.1 °F - 35.1 °F 37% 30.30 in 10.0 mi NNE 8.1 mph - N/A   Clear
12:53 PM 63.0 °F - 35.1 °F 35% 30.27 in 10.0 mi NNW 3.5 mph - N/A   Clear
1:53 PM 66.0 °F - 34.0 °F 30% 30.26 in 10.0 mi North 6.9 mph - N/A   Clear
2:53 PM 66.9 °F - 34.0 °F 30% 30.23 in 10.0 mi NNE 8.1 mph - N/A   Clear
3:53 PM 66.0 °F - 33.1 °F 29% 30.23 in 10.0 mi North 5.8 mph - N/A   Clear
4:53 PM 66.0 °F - 33.1 °F 29% 30.23 in 10.0 mi NE 8.1 mph - N/A   Clear
5:53 PM 60.1 °F - 33.1 °F 36% 30.25 in 10.0 mi NNE 4.6 mph - N/A   Clear
6:53 PM 55.9 °F - 32.0 °F 40% 30.26 in 10.0 mi ENE 6.9 mph - N/A   Clear
7:53 PM 53.1 °F - 32.0 °F 45% 30.27 in 10.0 mi East 5.8 mph - N/A   Clear
8:53 PM 50.0 °F - 32.0 °F 50% 30.27 in 10.0 mi ESE 4.6 mph - N/A   Clear
9:53 PM 48.0 °F - 32.0 °F 54% 30.27 in 10.0 mi East 4.6 mph - N/A   Clear
10:53 PM 42.1 °F 37.1 °F 28.9 °F 60% 30.28 in 10.0 mi WNW 8.1 mph - N/A   Clear
11:53 PM 39.9 °F 35.8 °F 28.0 °F 63% 30.28 in 10.0 mi NNW 5.8 mph - N/A   Clear